Regional Weather Roundup
Issued by NWS

Home | Current Version | Previous Version | Graphics & Text | Print | Product List | Glossary On
Versions: 1 2 3 4 5 6 7 8 9 10 11 12 13 14 15 16 17 18 19 20 21 22 23 24 25 26 27
000
ASUS45 KSLC 262110
RWRUT

UTAH REGIONAL WEATHER ROUNDUP
NATIONAL WEATHER SERVICE SALT LAKE CITY UT
300 PM MDT MON JUN 26 2017

UTZ001>011-023>025-262200-

NORTHERN UTAH

CITY           SKY/WX    TMP DP  RH WIND       PRES   REMARKS
BRIGHAM CITY   MOSUNNY   92  31  11 SW6       30.01F
DUGWAY         PTSUNNY   98  23   7 S13G23    29.96F HX  92
HILL AFB       MOSUNNY   90  34  13 SE8       30.04F
LOGAN          MOSUNNY   90  43  19 VRB5      30.02F
OGDEN          MOSUNNY   95  33  11 SW8       30.01F HX  90
SALT LAKE CITY PTSUNNY   99  30   9 S14       29.98F HX  93
TOOELE VALLEY  PTSUNNY   93  43  17 N6        29.99F
WENDOVER         N/A     93  31  11 SE10      29.97F
HEBER CITY     MOSUNNY   91  28  10 SW18G24   30.11F
WEST JORDAN    PTSUNNY   94  54  25 SE16G22   30.03F HX  91

$$

UTZ011>015-024>027-262200-

CENTRAL/NORTHEAST UTAH

CITY           SKY/WX    TMP DP  RH WIND       PRES   REMARKS
PROVO AIRPORT  MOSUNNY   93  32  11 VRB5      30.04F
MOAB/CANYONLAN SUNNY     99  15   5 SE7       30.00F HX  91
DELTA          SUNNY     97  27   8 W12       30.02F HX  90
PRICE          PTSUNNY   89  24   9 S8G18     30.15F
RICHFIELD        N/A     90  32  12 W6G13     30.09F
VERNAL         SUNNY     90  29  11 SE3       30.10F

$$

UTZ013>016-019>022-027-262200-

SOUTHERN UTAH

CITY           SKY/WX    TMP DP  RH WIND       PRES   REMARKS
BRYCE CANYON   MOSUNNY   83  25  12 MISG      30.31F
CEDAR CITY     SUNNY     94  20   7 S26G37    30.13F
MILFORD        SUNNY     98  23   7 SW22G32   30.04F HX  91
ST GEORGE      PTCLDY   105  24   6 S25G31    29.90F HX  97
HANKSVILLE     MOSUNNY  100  23   6 S10       30.03F HX  93
KANAB          SUNNY     99  23   6 S17G23    30.11F HX  92
BLANDING       MOSUNNY   87  33  14 S5        30.25F

$$

REGIONAL REPORTS     COLORADO/ARIZONA

CITY           SKY/WX    TMP DP  RH WIND       PRES   REMARKS
CRAIG, CO      SUNNY     88  22   9 NE6       30.20F
GRAND JUNCTION CLOUDY    95  26   8 VRB5      30.06F
RIFLE, CO      SUNNY     93  17   6 VRB6G16   30.11F
MONTROSE, CO   SUNNY     90  28  11 VRB5      30.14F
CORTEZ, CO     SUNNY     93  29  10 S8        30.17F
COLORADO CITY    N/A    100  28   8 S17G32    30.12F HX  94
PAGE, AZ       MOSUNNY  102  27   7 N6        30.01F HX  95
GRAND CANYON   SUNNY     92  20   7 W13G23    30.27F
KINGMAN, AZ    SUNNY    102  29   7 W14G24    30.03F HX  95
FLAGSTAFF, AZ  MOSUNNY   85  28  12 W8G22     30.31F

$$

REGIONAL REPORTS    NEVADA/IDAHO/WYOMING

CITY           SKY/WX    TMP DP  RH WIND       PRES   REMARKS
LAS VEGAS, NV  SUNNY    106   4   2 S16G25    29.84F HX  97
ELY, NY        SUNNY     93  38  14 SE16G29   30.10F
ELKO, NV       SUNNY     96  28   9 MISG      29.97F HX  90
POCATELLO, ID  SUNNY     94  50  22 NE12      30.01F HX  91
BURLEY, ID     SUNNY     94  45  18 E8        29.93F HX  90
FORT BRIDGER,    N/A     87  29  12 NW9       30.26F
EVANSTON, WY   SUNNY     86  35  16 W17G24    30.24F
ROCK SPRINGS,  SUNNY     86  22   9 SW10G21   30.20F
KEMMERER, WY     N/A     81  30  16 SW10G16   30.26F

$$




USA.gov is the U.S. government's official web portal to all federal, state and local government web resources and services.